Location: Newark
(25.4800°N, 85.7200°E)
Time: 05:13:40
(UTC+00:00)

Vanguard 1 Rocket - Pass Details

Date: 22 August 2019
Orbit: 651 x 4225 km, 34.3° (Epoch: 20 September)

Event Time Altitude Azimuth Distance (km) Brightness Sun altitude
Rises 23:31:21 0° 295° (WNW) 3,258 9.8 -5.7°
Reaches altitude 10° 23:33:25 10° 301° (WNW) 2,511 9.3 -5.3°
Maximum altitude 23:39:07 52° 19° (NNE) 1,461 8.7 -4.0°
Drops below altitude 10° 23:49:29 10° 94° (E) 4,468 12.5 -1.8°
Sets 23:54:27 0° 98° (E) 6,082 13.2 -0.7°
